DW3248 Weather Reports


time (UTC)temp
F
wind
direction
speed
knots
gust
knots
rain 1hr
in
rain 24hr
in
rain mn
in
humidity
%
barometer
mb
20260503021624 55 174 2.6 4.3 0.00 0.28 0.28 97 1011.6
20260503021125 55 155 1.7 3.5 0.00 0.28 0.28 97 1011.5
20260503020624 55 162 1.7 3.5 0.00 0.28 0.28 97 1011.5
20260503020126 55 166 2.6 5.2 0.00 0.28 0.28 97 1011.6
20260503015624 55 142 2.6 4.3 0.00 0.28 0.28 97 1011.5
20260503015127 55 115 1.7 3.5 0.00 0.28 0.28 97 1011.4
20260503014128 55 122 1.7 3.5 0.00 0.28 0.28 97 1011.4
20260503013624 55 123 2.6 5.2 0.00 0.28 0.28 97 1011.4
20260503013127 55 122 1.7 3.5 0.00 0.28 0.28 97 1011.5
20260503012624 55 163 1.7 3.5 0.00 0.28 0.28 96 1011.5
20260503012129 56 99 3.5 5.2 0.00 0.28 0.28 96 1011.5
20260503011624 56 102 2.6 4.3 0.00 0.28 0.28 97 1011.5
20260503011126 56 120 1.7 4.3 0.00 0.28 0.28 97 1011.6
20260503010624 56 104 2.6 5.2 0.00 0.28 0.28 97 1011.5
20260503010126 56 115 2.6 5.2 0.00 0.28 0.28 97 1011.6
20260503005127 56 112 2.6 6.1 0.00 0.28 0.28 96 1011.7
20260503004624 56 111 2.6 5.2 0.00 0.28 0.28 97 1011.8
20260503004127 56 99 2.6 4.3 0.00 0.28 0.28 96 1011.8
20260503003625 55 122 2.6 6.1 0.00 0.28 0.28 96 1011.8
20260503003129 55 116 2.6 6.1 0.00 0.28 0.28 96 1011.8
20260503002624 55 108 2.6 5.2 0.00 0.28 0.28 96 1011.7
20260503002126 55 109 1.7 3.5 0.00 0.28 0.28 96 1011.9
20260503001624 55 100 2.6 5.2 0.00 0.28 0.28 96 1012.0
20260503001126 55 120 2.6 3.5 0.00 0.28 0.28 96 1012.1
20260503000624 55 124 2.6 5.2 0.00 0.28 0.28 96 1012.2
20260502235624 55 100 3.5 7.0 0.01 0.28 0.28 95 1012.2
20260502235126 55 132 2.6 6.1 0.03 0.28 0.28 95 1012.2
20260502234126 56 98 2.6 6.1 0.08 0.28 0.28 95 1012.2
20260502233624 56 97 2.6 5.2 0.09 0.28 0.28 95 1012.2
20260502233127 56 86 3.5 7.0 0.11 0.28 0.28 95 1012.3
20260502232624 56 78 3.5 7.0 0.13 0.28 0.28 95 1012.2
20260502232127 56 82 3.5 7.0 0.17 0.28 0.28 95 1012.2
20260502231624 56 96 3.5 9.6 0.20 0.28 0.28 95 1012.4
20260502231127 56 85 4.3 7.8 0.22 0.28 0.28 95 1012.3
20260502230624 56 83 4.3 8.7 0.24 0.27 0.28 95 1012.3
20260502230127 56 78 5.2 10.4 0.27 0.26 0.27 95 1012.4
20260502225624 56 64 5.2 7.8 0.27 0.25 0.27 95 1012.5
20260502225128 56 104 5.2 9.6 0.25 0.22 0.25 95 1012.9
20260502224625 55 78 6.1 11.3 0.23 0.20 0.23 95 1012.8
20260502224126 55 78 6.1 10.4 0.20 0.18 0.20 94 1012.9
20260502223624 55 79 6.1 9.6 0.18 0.17 0.18 94 1013.2
20260502223125 55 70 5.2 8.7 0.17 0.14 0.17 93 1013.4
20260502222624 56 60 4.3 7.8 0.15 0.11 0.15 92 1013.7
20260502222128 56 86 3.5 5.2 0.12 0.08 0.12 91 1014.1
20260502221624 57 82 2.6 4.3 0.09 0.06 0.09 89 1014.3
20260502221127 57 139 1.7 3.5 0.07 0.03 0.07 87 1014.6
20260502220624 58 167 2.6 5.2 0.04 0.00 0.04 83 1014.8
20260502220126 59 205 3.5 6.1 0.00 0.00 0.00 78 1014.9
20260502215624 59 212 4.3 8.7 0.00 0.00 0.00 80 1014.8
20260502215126 59 213 7.0 13.9 0.00 0.00 0.00 83 1015.2
20260502214624 58 229 6.1 13.0 0.00 0.00 0.00 87 1014.9
20260502214127 58 192 5.2 12.2 0.00 0.00 0.00 90 1015.0
20260502213624 58 85 3.5 7.0 0.00 0.00 0.00 89 1013.9
20260502213127 58 128 4.3 9.6 0.00 0.00 0.00 89 1013.9
20260502212624 58 6 4.3 9.6 0.00 0.00 0.00 89 1013.1
20260502212127 58 358 3.5 8.7 0.00 0.00 0.00 89 1013.1
20260502211624 58 17 4.3 13.0 0.00 0.00 0.00 88 1013.2
20260502211127 59 31 5.2 9.6 0.00 0.00 0.00 87 1013.3
20260502210624 59 42 4.3 10.4 0.00 0.00 0.00 86 1013.3
20260502210126 59 36 2.6 9.6 0.00 0.00 0.00 84 1013.4
20260502205624 59 359 2.6 6.1 0.00 0.00 0.00 83 1013.3
20260502205127 59 2 4.3 7.0 0.00 0.00 0.00 82 1013.4
20260502204624 60 10 3.5 7.0 0.00 0.00 0.00 78 1013.5
20260502204126 60 352 2.6 7.8 0.00 0.00 0.00 75 1013.6
20260502203624 60 5 2.6 9.6 0.00 0.00 0.00 73 1013.7
20260502202624 60 29 1.7 4.3 0.00 0.00 0.00 69 1013.8
20260502202128 60 16 2.6 4.3 0.00 0.00 0.00 68 1013.9
20260502201624 60 25 2.6 4.3 0.00 0.00 0.00 68 1013.9
20260502200624 60 5 2.6 4.3 0.00 0.00 0.00 67 1014.1
20260502200126 60 359 2.6 5.2 0.00 0.00 0.00 68 1014.1
20260502195624 60 23 1.7 4.3 0.00 0.00 0.00 68 1014.2
20260502195128 60 0 2.6 4.3 0.00 0.00 0.00 67 1014.1
20260502194623 60 356 2.6 5.2 0.00 0.00 0.00 66 1014.2
20260502194126 60 23 2.6 6.1 0.00 0.00 0.00 66 1014.2
20260502193624 60 2 3.5 6.1 0.00 0.00 0.00 67 1014.3
20260502192623 61 41 1.7 4.3 0.00 0.00 0.00 67 1014.3
20260502192125 62 20 1.7 3.5 0.00 0.00 0.00 67 1014.2
20260502191623 62 347 3.5 6.1 0.00 0.00 0.00 67 1014.1
20260502190623 62 21 2.6 5.2 0.00 0.00 0.00 65 1014.2
20260502185124 63 340 2.6 7.0 0.00 0.00 0.00 62 1014.2
20260502184624 63 25 2.6 4.3 0.00 0.00 0.00 61 1014.2
20260502184124 64 358 2.6 3.5 0.00 0.00 0.00 60 1014.2
20260502182623 66 351 3.5 6.1 0.00 0.00 0.00 53 1014.1
20260502182126 66 346 2.6 6.1 0.00 0.00 0.00 54 1014.0
20260502181125 67 317 1.7 3.5 0.00 0.00 0.00 54 1014.0
20260502180126 67 317 1.7 3.5 0.00 0.00 0.00 54 1014.0
20260502170126 69 301 2.6 4.3 0.00 0.00 0.00 54 1014.7
20260502164126 69 272 3.5 5.2 0.00 0.00 0.00 54 1015.1
20260502163623 70 275 3.5 6.1 0.00 0.00 0.00 55 1015.1
20260502163127 69 247 3.5 6.1 0.00 0.00 0.00 55 1015.2
20260502162623 70 246 4.3 7.0 0.00 0.00 0.00 54 1015.3
20260502162128 70 257 2.6 5.2 0.00 0.00 0.00 55 1015.3
20260502161623 70 292 4.3 8.7 0.00 0.00 0.00 55 1015.3
20260502160623 70 265 4.3 7.0 0.00 0.00 0.00 55 1015.3
20260502160124 71 266 3.5 7.8 0.00 0.00 0.00 56 1015.4
20260502151624 71 236 2.6 5.2 0.00 0.00 0.00 59 1015.6
20260502151127 71 231 3.5 8.7 0.00 0.00 0.00 60 1015.7
20260502150624 71 249 3.5 6.1 0.00 0.00 0.00 60 1015.7
20260502150124 71 250 4.3 9.6 0.00 0.00 0.00 60 1015.8
20260502140125 72 240 4.3 9.6 0.00 0.00 0.00 63 1016.5
20260502130623 71 217 4.3 8.7 0.00 0.00 0.00 66 1016.8
20260502130126 71 228 5.2 11.3 0.00 0.00 0.00 65 1016.9
20260502123128 71 230 5.2 9.6 0.00 0.00 0.00 70 1017.2
20260502122623 71 215 5.2 10.4 0.00 0.00 0.00 70 1017.2
20260502122126 70 220 5.2 9.6 0.00 0.00 0.00 72 1017.3
20260502121623 69 213 4.3 9.6 0.00 0.00 0.00 72 1017.3
20260502121125 69 212 7.0 13.0 0.00 0.00 0.00 71 1017.4
20260502120624 70 196 6.1 12.2 0.00 0.00 0.00 71 1017.3
20260502120126 70 215 6.1 11.3 0.00 0.00 0.00 71 1017.4
20260502115623 70 204 6.1 10.4 0.00 0.00 0.00 72 1017.4
20260502114623 68 236 5.2 13.0 0.00 0.00 0.00 74 1017.5
20260502114126 68 231 6.1 10.4 0.00 0.00 0.00 74 1017.5
20260502113623 68 222 6.1 9.6 0.00 0.00 0.00 73 1017.5
20260502112623 68 247 4.3 9.6 0.00 0.00 0.00 75 1017.6
20260502112128 69 211 6.1 12.2 0.00 0.00 0.00 71 1017.7
20260502111124 69 244 6.1 12.2 0.00 0.00 0.00 71 1017.6
20260502110623 69 214 5.2 10.4 0.00 0.00 0.00 71 1017.6
20260502110126 69 246 4.3 8.7 0.00 0.00 0.00 72 1017.6
20260502105623 68 237 5.2 10.4 0.00 0.00 0.00 74 1017.7
20260502105126 69 246 5.2 10.4 0.00 0.00 0.00 72 1017.7
20260502104623 70 228 6.1 10.4 0.00 0.00 0.00 69 1017.7
20260502104126 71 208 6.1 13.0 0.00 0.00 0.00 68 1017.7
20260502103623 70 219 7.0 13.0 0.00 0.00 0.00 70 1017.8
20260502103127 69 239 5.2 13.0 0.00 0.00 0.00 70 1017.8
20260502102623 70 243 5.2 11.3 0.00 0.00 0.00 70 1017.8
20260502102124 69 226 6.1 10.4 0.00 0.00 0.00 71 1017.8
20260502101623 69 217 4.3 10.4 0.00 0.00 0.00 71 1017.8
20260502100623 69 217 4.3 10.4 0.00 0.00 0.00 71 1017.9
20260502100127 69 213 5.2 10.4 0.00 0.00 0.00 70 1017.9
20260502091128 65 234 2.6 6.1 0.00 0.00 0.00 79 1018.2
20260502090127 63 202 4.3 9.6 0.00 0.00 0.00 80 1018.2
20260502071126 59 203 3.5 5.2 0.00 0.00 0.00 74 1018.1
20260502070623 58 210 2.6 5.2 0.00 0.00 0.00 76 1018.2
20260502070126 58 218 2.6 4.3 0.00 0.00 0.00 75 1018.2
20260502065623 57 211 0.9 2.6 0.00 0.00 0.00 75 1018.2
20260502065130 57 200 2.6 4.3 0.00 0.00 0.00 75 1018.3
20260502064623 56 197 2.6 3.5 0.00 0.00 0.00 74 1018.3
20260502064126 56 181 2.6 4.3 0.00 0.00 0.00 73 1018.3
20260502063126 55 162 0.9 2.6 0.00 0.00 0.00 73 1018.2
20260502062623 55 153 0.9 1.7 0.00 0.00 0.00 73 1018.1
20260502062126 55 169 0.9 3.5 0.00 0.00 0.00 73 1018.1
20260502061623 55 177 1.7 3.5 0.00 0.00 0.00 72 1018.2
20260502061127 55 178 1.7 3.5 0.00 0.00 0.00 72 1018.2
20260502060623 55 117 0.9 2.6 0.00 0.00 0.00 71 1018.0
20260502060126 55 150 0.9 2.6 0.00 0.00 0.00 71 1018.1
20260502055623 55 178 1.7 5.2 0.00 0.00 0.00 72 1018.1
20260502055127 55 194 3.5 7.8 0.00 0.00 0.00 72 1018.3
20260502054623 54 203 3.5 5.2 0.00 0.00 0.00 72 1018.3
20260502054126 54 195 3.5 7.8 0.00 0.00 0.00 72 1018.2
20260502053623 54 195 3.5 6.1 0.00 0.00 0.00 71 1018.1
20260502053125 54 191 3.5 7.8 0.00 0.00 0.00 70 1018.1
20260502052127 53 173 1.7 3.5 0.00 0.00 0.00 75 1017.8
20260502051623 52 169 0.0 1.7 0.00 0.00 0.00 76 1017.8
20260502051126 52 168 0.0 1.7 0.00 0.00 0.00 75 1017.8
20260502050125 52 174 1.7 4.3 0.00 0.00 0.00 75 1017.9
20260502045623 51 183 1.7 3.5 0.00 0.00 0.00 76 1017.9
20260502045126 51 181 1.7 3.5 0.00 0.00 0.00 76 1018.0
20260502044623 51 176 1.7 3.5 0.00 0.00 0.00 75 1018.0
20260502044129 50 178 2.6 3.5 0.00 0.00 0.00 77 1017.9
20260502043623 50 179 2.6 4.3 0.00 0.00 0.00 76 1018.0
20260502043126 50 179 2.6 3.5 0.00 0.00 0.00 78 1017.9
20260502042623 49 178 1.7 3.5 0.00 0.00 0.00 80 1017.9
20260502042126 49 174 1.7 2.6 0.00 0.00 0.00 81 1018.0
20260502041126 48 172 0.9 2.6 0.00 0.00 0.00 82 1018.0
20260502040623 48 167 1.7 3.5 0.00 0.00 0.00 83 1017.9
20260502040126 48 141 1.7 2.6 0.00 0.00 0.00 83 1018.0
20260502035623 48 151 0.9 1.7 0.00 0.00 0.00 84 1018.0
20260502035126 48 190 0.9 2.6 0.00 0.00 0.00 84 1018.0
20260502034623 47 150 0.9 2.6 0.00 0.00 0.00 86 1017.9
20260502034126 47 176 0.9 1.7 0.00 0.00 0.00 86 1018.1
20260502033623 47 283 0.0 0.9 0.00 0.00 0.00 86 1018.1
20260502033126 48 103 0.9 1.7 0.00 0.00 0.00 87 1018.0
20260502032623 47 172 0.0 1.7 0.00 0.00 0.00 87 1018.2
20260502032126 48 134 0.0 1.7 0.00 0.00 0.00 87 1018.1
20260502031125 48 111 0.0 0.9 0.00 0.00 0.00 86 1018.3
20260502030623 48 90 0.0 0.9 0.00 0.00 0.00 86 1018.3
20260502030127 48 109 0.0 0.9 0.00 0.00 0.00 86 1018.4
20260502025623 48 124 0.0 0.9 0.00 0.00 0.00 86 1018.4
20260502024623 48 58 0.0 0.9 0.00 0.00 0.00 86 1018.5
20260502024126 48 91 0.9 1.7 0.00 0.00 0.00 85 1018.5
20260502022623 48 96 0.0 1.7 0.00 0.00 0.00 84 1018.6
20260502022126 48 124 0.9 1.7 0.00 0.00 0.00 84 1018.6